Location: ??????
(56.0120°N, 39.1740°E)
Time: 06:34:03
(UTC+00:00)

Cosmos 1174 - Pass Details

Date: 14 April 2026
Orbit: 369 x 1032 km, 66.1° (Epoch: 12 May)

Event Time Altitude Azimuth Distance (km) Brightness Sun altitude
Rises 19:01:32 0° 313° (NW) 2,671 8.9 -18.1°
Reaches altitude 10° 19:04:00 10° 322° (NW) 1,675 7.6 -18.3°
Maximum altitude 19:07:24 36° 31° (NNE) 703 4.5 -18.5°
Enters shadow 19:08:20 30° 69° (ENE) 797 4.5 -18.6°
